Location: Newark
(48.5497°N, 16.3978°E)
Time: 20:44:29
(UTC+00:00)

N. Korean satellite - Visible Passes

Search period start: 11 November 2019 00:00
Search period end: 21 November 2019 00:00
Orbit: 456 x 506 km, 97.2° (Epoch: 10 November)

Date Brightness Start Highest point End Pass type
(mag) Time Alt. Az. Time Alt. Az. Time Alt. Az.
11 Nov 6.9 04:50:35 10° NNE 04:54:20 74° ESE 04:58:02 10° S visible
11 Nov 10.0 17:04:38 10° SW 17:06:39 14° W 17:08:42 10° NW visible
12 Nov 8.3 04:25:24 10° NNE 04:28:54 37° E 04:32:22 10° SSE visible
12 Nov 9.0 16:37:59 10° SSW 16:41:05 26° W 16:44:13 10° NW visible
13 Nov 9.5 04:00:34 10° NE 04:03:22 20° E 04:06:10 10° SE visible
13 Nov 7.6 16:12:04 10° S 16:15:35 52° W 16:19:11 10° NNW visible
14 Nov 10.3 03:36:49 10° ENE 03:37:45 11° E 03:38:41 10° ESE visible
14 Nov 6.6 05:07:52 10° N 05:11:35 69° WNW 05:15:16 10° SSW visible
14 Nov 6.5 15:46:35 10° SSE 15:50:11 77° ENE 15:53:52 10° N visible
15 Nov 7.3 04:42:31 10° NNE 04:46:13 59° E 04:49:53 10° S visible
15 Nov 9.8 16:55:57 10° SW 16:58:27 18° W 17:01:00 10° NW visible
16 Nov 8.7 04:17:25 10° NNE 04:20:45 30° E 04:24:02 10° SSE visible
16 Nov 8.6 16:29:36 10° SSW 16:32:53 32° W 16:36:15 10° NNW visible
17 Nov 9.8 03:52:45 10° NE 03:55:11 16° E 03:57:35 10° SE visible
17 Nov 7.0 05:25:14 10° N 05:28:48 43° WNW 05:32:18 10° SW visible
17 Nov 7.1 16:03:49 10° S 16:07:26 65° W 16:11:07 10° NNW visible
18 Nov 6.6 04:59:43 10° NNE 05:03:28 85° WNW 05:07:09 10° SSW visible
18 Nov 10.2 17:14:33 10° WSW 17:15:52 12° W 17:17:11 10° WNW visible
19 Nov 7.7 04:34:26 10° NNE 04:38:04 47° E 04:41:37 10° S visible
19 Nov 9.4 16:47:22 10° SW 16:50:13 21° W 16:53:08 10° NW visible
20 Nov 9.1 04:09:25 10° NE 04:12:32 25° E 04:15:37 10° SSE visible
20 Nov 8.2 16:21:14 10° S 16:24:41 40° W 16:28:13 10° NNW visible
